CFG3Q LGMK-LOWS

Flight info

Callsign CFG3Q
Flight time 1h 30m
Altitude 34000
Route VARIX L995 KEA UN132 ROPOX UM749 SKP UL617 MAKED DCT LONTA UL608 DOLEV DCT PODOB DCT TEBLI DCT MAGAM DCT DIPSA DCT RASTA RASTA2R
Aircraft A321/M-SDE3FGHIRWY/LB1

Departure

Time 2026-04-22 19:25
Airport Mykonos Island National Airport (LGMK)

Arrival

Time 2026-04-22 20:55
Airport Salzburg Airport (LOWS)
Time Latitude Longitude Altitude Speed Heading
2026-04-22 18:48 37.43544 25.34634 412 ft 0 kts 252°
2026-04-22 19:17 37.43546 25.34640 412 ft 4 kts 250°
2026-04-22 19:17 37.43559 25.34668 413 ft 4 kts 218°
2026-04-22 19:17 37.43581 25.34677 406 ft 4 kts 169°
2026-04-22 19:17 37.43589 25.34675 413 ft 1 kts 161°
2026-04-22 19:21 37.43581 25.34678 410 ft 7 kts 161°
2026-04-22 19:21 37.43505 25.34711 413 ft 13 kts 161°
2026-04-22 19:22 37.43423 25.34752 413 ft 10 kts 134°
2026-04-22 19:22 37.43400 25.34837 416 ft 13 kts 120°
2026-04-22 19:22 37.43320 25.34908 411 ft 16 kts 163°
2026-04-22 19:22 37.43205 25.34956 411 ft 18 kts 160°
2026-04-22 19:23 37.43077 25.35014 417 ft 21 kts 160°
2026-04-22 19:23 37.42934 25.35079 414 ft 23 kts 160°
2026-04-22 19:23 37.42792 25.35137 413 ft 16 kts 176°
2026-04-22 19:23 37.42730 25.35178 415 ft 10 kts 15°
2026-04-22 19:24 37.42767 25.35155 416 ft 0 kts 342°
2026-04-22 19:24 37.42806 25.35139 409 ft 31 kts 342°
2026-04-22 19:24 37.43243 25.34942 414 ft 100 kts 340°
2026-04-22 19:24 37.44054 25.34577 561 ft 135 kts 341°
2026-04-22 19:25 37.44778 25.33847 1069 ft 147 kts 304°
2026-04-22 19:25 37.45222 25.32656 1639 ft 150 kts 300°
2026-04-22 19:25 37.45663 25.31432 1982 ft 158 kts 296°
2026-04-22 19:25 37.46026 25.30103 2367 ft 162 kts 290°
2026-04-22 19:26 37.46379 25.28710 2671 ft 172 kts 288°
2026-04-22 19:26 37.46739 25.27235 2904 ft 187 kts 286°
2026-04-22 19:26 37.47098 25.25581 3193 ft 201 kts 283°
2026-04-22 19:26 37.47475 25.23832 3569 ft 212 kts 285°
2026-04-22 19:27 37.47908 25.21999 3913 ft 226 kts 277°
2026-04-22 19:27 37.47813 25.19968 4201 ft 242 kts 251°
2026-04-22 19:27 37.47022 25.18047 4655 ft 254 kts 230°
2026-04-22 19:27 37.45834 25.16407 5317 ft 258 kts 226°
2026-04-22 19:28 37.44590 25.14761 6046 ft 260 kts 227°
2026-04-22 19:28 37.43349 25.13091 6757 ft 262 kts 229°
2026-04-22 19:28 37.42110 25.11395 7458 ft 264 kts 230°
2026-04-22 19:28 37.40868 25.09680 8151 ft 266 kts 230°
2026-04-22 19:29 37.39633 25.07966 8834 ft 268 kts 231°
2026-04-22 19:29 37.38378 25.06215 9521 ft 270 kts 232°
2026-04-22 19:29 37.37308 25.04280 10154 ft 269 kts 248°
2026-04-22 19:29 37.36887 25.02007 10645 ft 272 kts 270°
2026-04-22 19:30 37.37042 25.00410 10827 ft 283 kts 284°
2026-04-22 19:30 37.37915 24.97139 11130 ft 306 kts 289°
2026-04-22 19:30 37.38642 24.94586 11337 ft 322 kts 288°
2026-04-22 19:30 37.39390 24.91886 11702 ft 331 kts 288°
2026-04-22 19:31 37.40145 24.89127 12255 ft 334 kts 288°
2026-04-22 19:31 37.40899 24.86346 12857 ft 337 kts 288°
2026-04-22 19:31 37.41653 24.83538 13483 ft 339 kts 287°
2026-04-22 19:31 37.42401 24.80726 14068 ft 340 kts 287°
2026-04-22 19:32 37.43149 24.77901 14602 ft 341 kts 287°
2026-04-22 19:32 37.43893 24.75090 15109 ft 343 kts 287°
2026-04-22 19:32 37.44647 24.72230 15622 ft 345 kts 287°
2026-04-22 19:32 37.45400 24.69349 16124 ft 347 kts 287°
2026-04-22 19:33 37.46155 24.66449 16621 ft 350 kts 287°
2026-04-22 19:33 37.46918 24.63523 17124 ft 352 kts 287°
2026-04-22 19:33 37.47683 24.60591 17605 ft 354 kts 287°
2026-04-22 19:33 37.48458 24.57626 18088 ft 356 kts 288°
2026-04-22 19:34 37.49238 24.54650 18519 ft 358 kts 287°
2026-04-22 19:34 37.50021 24.51661 18930 ft 360 kts 288°
2026-04-22 19:34 37.50798 24.48687 19329 ft 362 kts 287°
2026-04-22 19:34 37.51586 24.45656 19750 ft 364 kts 287°
2026-04-22 19:35 37.52380 24.42611 20161 ft 366 kts 288°
2026-04-22 19:35 37.53175 24.39554 20571 ft 368 kts 288°
2026-04-22 19:35 37.53703 24.37518 20831 ft 369 kts 288°
2026-04-22 19:35 37.54821 24.33413 21376 ft 371 kts 291°
2026-04-22 19:36 37.56038 24.30581 21771 ft 374 kts 303°
2026-04-22 19:36 37.57775 24.28111 22137 ft 381 kts 315°
2026-04-22 19:36 37.59922 24.26094 22508 ft 386 kts 322°
2026-04-22 19:36 37.62157 24.24194 22866 ft 388 kts 322°
2026-04-22 19:37 37.64404 24.22285 23221 ft 390 kts 322°
2026-04-22 19:37 37.66654 24.20346 23567 ft 392 kts 321°
2026-04-22 19:37 37.68879 24.18425 23889 ft 393 kts 321°
2026-04-22 19:37 37.71141 24.16465 24207 ft 394 kts 321°
2026-04-22 19:38 37.73406 24.14497 24523 ft 395 kts 321°
2026-04-22 19:38 37.75676 24.12525 24854 ft 396 kts 321°
2026-04-22 19:38 37.77948 24.10545 25145 ft 397 kts 321°
2026-04-22 19:38 37.80228 24.08556 25426 ft 398 kts 321°
2026-04-22 19:39 37.82520 24.06557 25724 ft 399 kts 321°
2026-04-22 19:39 37.84785 24.04582 26015 ft 401 kts 321°
2026-04-22 19:39 37.87086 24.02575 26303 ft 402 kts 321°
2026-04-22 19:39 37.89393 24.00557 26582 ft 403 kts 321°
2026-04-22 19:40 37.91703 23.98535 26856 ft 404 kts 321°
2026-04-22 19:40 37.93241 23.97188 27035 ft 404 kts 321°
2026-04-22 19:40 37.95560 23.95160 27341 ft 405 kts 320°
2026-04-22 19:40 37.98640 23.92467 27722 ft 406 kts 320°
2026-04-22 19:41 38.00212 23.91088 27902 ft 406 kts 320°
2026-04-22 19:41 38.02508 23.89074 28147 ft 407 kts 320°
2026-04-22 19:41 38.04839 23.87029 28442 ft 407 kts 321°
2026-04-22 19:41 38.07168 23.84985 28802 ft 405 kts 320°
2026-04-22 19:42 38.09489 23.82942 29168 ft 404 kts 320°
2026-04-22 19:42 38.11802 23.80906 29522 ft 402 kts 320°
2026-04-22 19:42 38.14084 23.78923 29862 ft 402 kts 322°
2026-04-22 19:42 38.16546 23.77208 30160 ft 405 kts 329°
2026-04-22 19:43 38.22112 23.75496 30628 ft 420 kts 346°
2026-04-22 19:43 38.25023 23.75125 30868 ft 420 kts 347°
2026-04-22 19:43 38.27936 23.74769 31127 ft 419 kts 347°
2026-04-22 19:44 38.30829 23.74386 31397 ft 418 kts 346°
2026-04-22 19:44 38.33717 23.73981 31627 ft 417 kts 346°
2026-04-22 19:44 38.36559 23.73566 31851 ft 416 kts 346°
2026-04-22 19:44 38.39441 23.73150 32077 ft 416 kts 346°
2026-04-22 19:45 38.42320 23.72730 32318 ft 416 kts 345°
2026-04-22 19:45 38.45193 23.72311 32631 ft 414 kts 345°
2026-04-22 19:45 38.48062 23.71897 32899 ft 412 kts 345°
2026-04-22 19:45 38.50872 23.71488 33151 ft 411 kts 345°
2026-04-22 19:46 38.53715 23.71075 33379 ft 410 kts 345°
2026-04-22 19:46 38.56560 23.70660 33586 ft 410 kts 345°
2026-04-22 19:46 38.59395 23.70248 33802 ft 410 kts 345°
2026-04-22 19:46 38.62238 23.69831 33999 ft 410 kts 345°
2026-04-22 19:47 38.67914 23.69000 34050 ft 408 kts 345°
2026-04-22 19:47 38.73545 23.68178 34022 ft 407 kts 345°
2026-04-22 19:48 38.79140 23.67356 34021 ft 407 kts 345°
2026-04-22 19:48 43.53171 19.14440 34392 ft 407 kts 313°
2026-04-22 19:49 43.55172 19.12082 34300 ft 395 kts 311°
2026-04-22 19:49 43.57093 19.09440 34199 ft 386 kts 310°
2026-04-22 19:49 43.60823 19.04262 34128 ft 380 kts 310°
2026-04-22 19:50 43.64527 18.99043 34113 ft 380 kts 309°
2026-04-22 19:50 43.68198 18.93753 34125 ft 380 kts 309°
2026-04-22 19:51 43.71786 18.88513 34106 ft 376 kts 309°
2026-04-22 19:51 43.75387 18.83227 34135 ft 377 kts 309°
2026-04-22 19:52 43.79001 18.77933 34107 ft 377 kts 309°
2026-04-22 19:52 43.82574 18.72678 34104 ft 377 kts 309°
2026-04-22 19:53 43.86168 18.67384 34094 ft 376 kts 309°
2026-04-22 19:53 43.89756 18.62094 34084 ft 375 kts 309°
2026-04-22 19:54 43.93307 18.56852 34082 ft 375 kts 308°
2026-04-22 19:54 43.96885 18.51558 34084 ft 375 kts 308°
2026-04-22 19:55 44.00467 18.46268 34090 ft 375 kts 308°
2026-04-22 19:55 44.04054 18.40964 34094 ft 382 kts 309°
2026-04-22 19:56 44.07744 18.35513 34087 ft 391 kts 309°
2026-04-22 19:56 44.11455 18.30023 34083 ft 390 kts 308°
2026-04-22 19:57 44.15178 18.24509 34091 ft 390 kts 309°
2026-04-22 19:57 44.18900 18.18988 34093 ft 390 kts 308°
2026-04-22 19:58 44.22607 18.13494 34087 ft 390 kts 308°
2026-04-22 19:58 44.26336 18.07954 34092 ft 391 kts 308°
2026-04-22 20:00 44.39378 17.88533 34115 ft 392 kts 308°
2026-04-22 20:01 44.43111 17.82951 34109 ft 392 kts 308°
2026-04-22 20:01 44.46849 17.77350 34098 ft 392 kts 309°
2026-04-22 20:02 44.50556 17.71794 34112 ft 392 kts 308°
2026-04-22 20:02 44.54276 17.66193 34109 ft 392 kts 308°
2026-04-22 20:03 44.57998 17.60581 34099 ft 392 kts 308°
2026-04-22 20:03 44.61705 17.55003 34129 ft 395 kts 308°
2026-04-22 20:04 44.65482 17.49304 34159 ft 400 kts 309°
2026-04-22 20:04 44.69286 17.43595 34132 ft 399 kts 309°
2026-04-22 20:05 44.73064 17.37911 34119 ft 400 kts 309°
2026-04-22 20:05 44.76867 17.32192 34115 ft 399 kts 309°
2026-04-22 20:06 44.80663 17.26480 34112 ft 399 kts 309°
2026-04-22 20:06 44.84438 17.20807 34114 ft 399 kts 309°
2026-04-22 20:07 44.88249 17.15084 34175 ft 403 kts 309°
2026-04-22 20:07 44.92117 17.09267 34136 ft 407 kts 309°
2026-04-22 20:08 44.95991 17.03431 34145 ft 407 kts 309°
2026-04-22 20:08 44.99857 16.97618 34138 ft 408 kts 309°
2026-04-22 20:09 45.03758 16.91760 34123 ft 408 kts 309°
2026-04-22 20:09 45.07641 16.85950 34130 ft 409 kts 309°
2026-04-22 20:10 45.11558 16.80114 34137 ft 409 kts 309°
2026-04-22 20:10 45.15504 16.74256 34142 ft 412 kts 310°
2026-04-22 20:11 45.19518 16.68398 34140 ft 414 kts 311°
2026-04-22 20:11 45.23844 16.63049 34134 ft 422 kts 326°
2026-04-22 20:11 45.26628 16.61576 34138 ft 436 kts 342°
2026-04-22 20:12 45.29714 16.61355 34149 ft 452 kts 359°
2026-04-22 20:12 45.32805 16.62435 34151 ft 467 kts 14°
2026-04-22 20:12 45.34766 16.63784 34177 ft 477 kts 24°
2026-04-22 20:12 45.38257 16.67812 34156 ft 487 kts 36°
2026-04-22 20:13 45.40969 16.70459 34133 ft 472 kts 20°
2026-04-22 20:13 45.44020 16.71948 34135 ft 457 kts
2026-04-22 20:13 45.47134 16.72143 34144 ft 442 kts 347°
2026-04-22 20:13 45.50053 16.71050 34140 ft 428 kts 330°
2026-04-22 20:14 45.52609 16.68934 34154 ft 421 kts 320°
2026-04-22 20:14 45.56785 16.63269 34147 ft 414 kts 304°
2026-04-22 20:15 45.59891 16.56361 34138 ft 413 kts 300°
2026-04-22 20:15 45.62924 16.49367 34145 ft 413 kts 300°
2026-04-22 20:16 45.65981 16.42393 34146 ft 413 kts 300°
2026-04-22 20:16 45.69021 16.35445 34149 ft 413 kts 300°
2026-04-22 20:17 45.72085 16.28464 34165 ft 414 kts 300°
2026-04-22 20:17 45.75133 16.21464 34170 ft 414 kts 300°
2026-04-22 20:18 45.78162 16.14496 34171 ft 414 kts 300°
2026-04-22 20:18 45.81215 16.07481 34171 ft 414 kts 300°
2026-04-22 20:19 45.84227 16.00505 34190 ft 414 kts 300°
2026-04-22 20:19 45.87282 15.93430 34159 ft 417 kts 300°
2026-04-22 20:20 45.90343 15.86347 34166 ft 417 kts 300°
2026-04-22 20:20 45.93392 15.79247 34169 ft 417 kts 300°
2026-04-22 20:21 45.96452 15.72227 34172 ft 418 kts 303°
2026-04-22 20:21 45.98335 15.69026 34167 ft 420 kts 314°
2026-04-22 20:21 46.00534 15.66247 34178 ft 422 kts 317°
2026-04-22 20:22 46.05051 15.60832 34171 ft 422 kts 317°
2026-04-22 20:22 46.09551 15.55388 34173 ft 422 kts 317°
2026-04-22 20:23 46.14037 15.49960 34187 ft 425 kts 317°
2026-04-22 20:23 46.18593 15.44443 34171 ft 427 kts 317°
2026-04-22 20:24 46.23111 15.38929 34177 ft 427 kts 317°
2026-04-22 20:24 46.27652 15.33368 34170 ft 426 kts 317°
2026-04-22 20:25 46.32166 15.27795 34182 ft 426 kts 317°
2026-04-22 20:25 46.36673 15.22282 34212 ft 426 kts 317°
2026-04-22 20:26 46.41221 15.16687 34193 ft 430 kts 317°
2026-04-22 20:26 46.45784 15.11052 34187 ft 430 kts 317°
2026-04-22 20:27 46.50344 15.05419 34173 ft 430 kts 317°
2026-04-22 20:27 46.54864 14.99806 34181 ft 430 kts 318°
2026-04-22 20:28 46.59417 14.94132 34181 ft 430 kts 317°
2026-04-22 20:28 46.62886 14.88978 34192 ft 429 kts 310°
2026-04-22 20:29 46.67414 14.81294 34173 ft 430 kts 310°
2026-04-22 20:29 46.70656 14.75777 34162 ft 430 kts 310°
2026-04-22 20:30 46.74535 14.69169 34167 ft 427 kts 310°
2026-04-22 20:30 46.78398 14.62565 34164 ft 427 kts 310°
2026-04-22 20:31 46.82236 14.55987 34160 ft 427 kts 309°
2026-04-22 20:31 46.86094 14.49370 34166 ft 427 kts 309°
2026-04-22 20:32 46.89954 14.42736 34166 ft 428 kts 309°
2026-04-22 20:32 46.93819 14.36077 34172 ft 428 kts 309°
2026-04-22 20:33 46.97651 14.29449 34039 ft 426 kts 309°
2026-04-22 20:33 46.99560 14.26137 33145 ft 425 kts 309°
2026-04-22 20:33 47.01469 14.22825 32203 ft 424 kts 309°
2026-04-22 20:33 47.03362 14.19540 31513 ft 418 kts 309°
2026-04-22 20:34 47.05225 14.16307 30963 ft 408 kts 309°
2026-04-22 20:34 47.07034 14.13169 30451 ft 397 kts 309°
2026-04-22 20:34 47.08781 14.10128 29918 ft 392 kts 309°
2026-04-22 20:34 47.10525 14.07084 29348 ft 386 kts 309°
2026-04-22 20:35 47.12241 14.04086 28807 ft 381 kts 309°
2026-04-22 20:35 47.13936 14.01121 28321 ft 375 kts 309°
2026-04-22 20:35 47.15605 13.98202 27855 ft 370 kts 309°
2026-04-22 20:35 47.17237 13.95344 27340 ft 367 kts 309°
2026-04-22 20:36 47.18873 13.92473 26828 ft 364 kts 309°
2026-04-22 20:36 47.20491 13.89629 26330 ft 361 kts 309°
2026-04-22 20:36 47.22097 13.86810 25838 ft 357 kts 309°
2026-04-22 20:36 47.23685 13.84019 25387 ft 353 kts 309°
2026-04-22 20:37 47.25254 13.81245 24926 ft 351 kts 309°
2026-04-22 20:37 47.26818 13.78484 24433 ft 349 kts 309°
2026-04-22 20:37 47.28378 13.75743 23964 ft 346 kts 309°
2026-04-22 20:37 47.29896 13.73059 23465 ft 344 kts 309°
2026-04-22 20:38 47.31425 13.70338 22944 ft 343 kts 309°
2026-04-22 20:38 47.32950 13.67648 22438 ft 340 kts 309°
2026-04-22 20:38 47.34464 13.64976 21940 ft 338 kts 309°
2026-04-22 20:38 47.35961 13.62323 21478 ft 335 kts 309°
2026-04-22 20:39 47.37430 13.59717 21014 ft 333 kts 309°
2026-04-22 20:39 47.38902 13.57098 20559 ft 330 kts 309°
2026-04-22 20:39 47.40366 13.54494 20118 ft 328 kts 309°
2026-04-22 20:39 47.41820 13.51910 19666 ft 325 kts 309°
2026-04-22 20:40 47.43261 13.49343 19239 ft 323 kts 309°
2026-04-22 20:40 47.44673 13.46825 18804 ft 321 kts 309°
2026-04-22 20:40 47.46101 13.44283 18347 ft 319 kts 309°
2026-04-22 20:40 47.47511 13.41763 17902 ft 316 kts 309°
2026-04-22 20:41 47.48912 13.39284 17473 ft 313 kts 311°
2026-04-22 20:41 47.50525 13.37156 17029 ft 311 kts 324°
2026-04-22 20:41 47.52323 13.35406 16608 ft 308 kts 327°
2026-04-22 20:41 47.54129 13.33718 16213 ft 306 kts 327°
2026-04-22 20:42 47.55917 13.32039 15821 ft 303 kts 327°
2026-04-22 20:42 47.57686 13.30367 15429 ft 301 kts 327°
2026-04-22 20:42 47.59450 13.28691 15018 ft 300 kts 326°
2026-04-22 20:42 47.61202 13.27013 14597 ft 299 kts 327°
2026-04-22 20:43 47.62923 13.25364 14204 ft 298 kts 327°
2026-04-22 20:43 47.64662 13.23701 13784 ft 296 kts 327°
2026-04-22 20:43 47.66389 13.22043 13344 ft 295 kts 327°
2026-04-22 20:43 47.68108 13.20393 12922 ft 295 kts 328°
2026-04-22 20:44 47.69835 13.18735 12528 ft 295 kts 328°
2026-04-22 20:44 47.71560 13.17077 12101 ft 294 kts 328°
2026-04-22 20:44 47.73275 13.15427 11690 ft 293 kts 328°
2026-04-22 20:44 47.74970 13.13794 11269 ft 293 kts 328°
2026-04-22 20:45 47.76679 13.12144 10929 ft 289 kts 328°
2026-04-22 20:45 47.78342 13.10541 10667 ft 281 kts 328°
2026-04-22 20:45 47.79965 13.08975 10429 ft 273 kts 328°
2026-04-22 20:45 47.81544 13.07448 10144 ft 268 kts 328°
2026-04-22 20:46 47.84651 13.04445 9349 ft 265 kts 328°
2026-04-22 20:46 47.86174 13.02972 8963 ft 263 kts 328°
2026-04-22 20:46 47.87704 13.01488 8583 ft 260 kts 328°
2026-04-22 20:47 47.89218 13.00023 8219 ft 259 kts 329°
2026-04-22 20:47 47.90729 12.98558 7871 ft 258 kts 329°
2026-04-22 20:47 47.92234 12.97095 7534 ft 258 kts 329°
2026-04-22 20:47 47.93781 12.95596 7288 ft 277 kts 329°
2026-04-22 20:48 47.95394 12.94028 7109 ft 279 kts 329°
2026-04-22 20:48 47.97021 12.92443 6631 ft 278 kts 329°
2026-04-22 20:48 47.98642 12.90866 6110 ft 277 kts 329°
2026-04-22 20:48 48.00166 12.89115 5641 ft 277 kts 314°
2026-04-22 20:49 48.01050 12.86591 5217 ft 276 kts 281°
2026-04-22 20:49 48.00957 12.83816 4844 ft 270 kts 250°
2026-04-22 20:49 47.99953 12.81545 4463 ft 259 kts 214°
2026-04-22 20:49 47.98350 12.80609 4114 ft 243 kts 176°
2026-04-22 20:50 47.96750 12.81356 3908 ft 248 kts 137°
2026-04-22 20:50 47.95831 12.83379 3863 ft 227 kts 105°
2026-04-22 20:50 47.95638 12.85591 3858 ft 208 kts 86°
2026-04-22 20:50 47.95646 12.87722 3863 ft 209 kts 96°
2026-04-22 20:51 47.95245 12.89805 3877 ft 210 kts 116°
2026-04-22 20:51 47.94203 12.91343 3885 ft 216 kts 144°
2026-04-22 20:51 47.92850 12.92365 3901 ft 217 kts 149°
2026-04-22 20:51 47.91501 12.93396 3896 ft 219 kts 149°
2026-04-22 20:52 47.90152 12.94468 3899 ft 219 kts 149°
2026-04-22 20:52 47.88837 12.95515 3886 ft 207 kts 149°
2026-04-22 20:52 47.87551 12.96240 3583 ft 195 kts 171°
2026-04-22 20:52 47.86282 12.96222 3367 ft 170 kts 176°
2026-04-22 20:53 47.85195 12.96639 2970 ft 157 kts 152°
2026-04-22 20:53 47.84233 12.97261 2669 ft 146 kts 153°
2026-04-22 20:53 47.83323 12.97874 2268 ft 142 kts 153°
2026-04-22 20:53 47.82405 12.98462 1949 ft 144 kts 155°
2026-04-22 20:54 47.81486 12.99028 1733 ft 145 kts 155°
2026-04-22 20:54 47.80554 12.99630 1502 ft 144 kts 156°
2026-04-22 20:54 47.79683 13.00181 1423 ft 124 kts 157°
2026-04-22 20:54 47.79058 13.00572 1421 ft 71 kts 156°
2026-04-22 20:55 47.78757 13.00763 1423 ft 28 kts 156°
2026-04-22 20:55 47.78600 13.00850 1420 ft 22 kts 192°
2026-04-22 20:55 47.78529 13.00689 1422 ft 17 kts 279°
2026-04-22 20:55 47.78626 13.00577 1420 ft 20 kts 338°
2026-04-22 20:56 47.78767 13.00486 1420 ft 24 kts 336°
2026-04-22 20:56 47.78892 13.00404 1427 ft 10 kts 336°
2026-04-22 20:56 47.78951 13.00330 1420 ft 14 kts 279°
2026-04-22 20:56 47.78965 13.00172 1424 ft 16 kts 305°
2026-04-22 20:57 47.79072 13.00081 1421 ft 20 kts 337°
2026-04-22 20:57 47.79171 13.00016 1421 ft 11 kts 332°
2026-04-22 20:57 47.79191 12.99947 1425 ft 8 kts 282°
2026-04-22 20:57 47.79196 12.99908 1423 ft 1 kts 281°
2026-04-22 20:58 47.79197 12.99901 1422 ft 0 kts 281°
2026-04-22 20:58 47.79197 12.99900 1422 ft 0 kts 281°